Regional Weather Roundup
Issued by NWS Grand Forks, ND

Home | Current Version | Previous Version | Text Only | Print | Product List | Glossary Off
Versions: 1 2 3 4 5 6 7 8 9 10 11 12 13 14 15 16 17 18 19 20 21 22 23 24 25 26 27 28 29 30 31 32 33 34 35 36 37 38 39 40 41 42 43 44 45 46 47 48 49 50

000
ASUS43 KFGF 251210
RWRFGF
PRAIRIE TO PINES  WEATHER ROUNDUP
NATIONAL WEATHER SERVICE EASTERN NORTH DAKOTA/GRAND FORKS ND
600 AM CST SAT FEB 25 2017

 **SATELLITE DATA USED TO AUGMENT SKY COVER AT AUTOMATED STATIONS**
 *****  WEATHER ACROSS EASTERN NORTH DAKOTA  *****

CITY           SKY/WX    TMP DP  RH WIND       PRES   REMARKS
GRAND FORKS    CLOUDY    20  13  74 S8        29.93F WCI  10
6HR MIN TEMP:  14; 6HR MAX TEMP:  21;

GRAND FRKS AFB CLOUDY    20  15  81 SW8       29.92F WCI  11
DEVILS LAKE    CLOUDY    20  16  84 SW13      29.89F WCI   7
6HR MIN TEMP:  14; 6HR MAX TEMP:  21; 6HR PCP: TRACE;

FARGO          CLOUDY    18  15  88 S3        29.98F
WAHPETON ARPT    N/A     18  14  86 W7        30.00F WCI   8
$$

 ***** WEATHER ACROSS CENTRAL AND WESTERN NORTH DAKOTA  *****

CITY           SKY/WX    TMP DP  RH WIND       PRES   REMARKS
BISMARCK       CLOUDY    20  16  84 SW6       29.94F WCI  12
6HR MIN TEMP:  13; 6HR MAX TEMP:  21;

MINOT          CLOUDY    22  19  89 W15       29.89F WCI   9
6HR MIN TEMP:  20; 6HR MAX TEMP:  26; 6HR PCP:  0.01;

JAMESTOWN      CLOUDY    19  14  81 SW9       29.92F WCI   8
6HR MIN TEMP:  13; 6HR MAX TEMP:  19;

MINOT AFB      CLOUDY    22  20  92 NW18      29.89F WCI   7
GARRISON         N/A     22  19  89 W8        29.89F WCI  12
WILLISTON      MOCLDY    18  17  96 N6        29.94S WCI  10
6HR MIN TEMP:  16; 6HR MAX TEMP:  25; 6HR PCP: TRACE;

DICKINSON      CLOUDY    21  15  78 N8        29.86F WCI  11
6HR MIN TEMP:  16; 6HR MAX TEMP:  23;

HETTINGER      CLOUDY    18  14  84 W3        29.91F
6HR MIN TEMP:  17; 6HR MAX TEMP:  21;

$$

 *****  OTHER AIRPORT OBSERVATIONS IN OUR AREA  *****

CITY           SKY/WX    TMP DP  RH WIND       PRES   REMARKS
WALHALLA       NOT AVBL
GRAFTON AIRPOR PTSUNNY   18  18 100 S7        29.94F WCI   8
VALLEY CITY AR CLOUDY    18  18 100 W9        29.96F WCI   6
CANDO          NOT AVBL
CAVALIER APRT    N/A     19  16  86 S7        29.88F WCI  10
GWINNER        PTSUNNY   19  18  93 SW10      29.99S WCI   8
SHEYENNE NWR     N/A     12   9  86 SW5       29.95S WCI   4
ROLLA          FAIR      16  16 100 W7        29.86S WCI   6
 ***** THE ABOVE OBSERVATIONS ARE NON NWS ARE NOT QUALITY
       CONTROLLED AND MAY MIS-REPORT RAIN FOR SNOW...
$$

  *****  WEATHER ACROSS NORTHERN MINNESOTA  *****

CITY           SKY/WX    TMP DP  RH WIND       PRES   REMARKS
FLAG ISLAND    FAIR       1  -2  85 NW3       29.89F
WARROAD        FAIR       1   0  92 CALM      29.91F
ROSEAU         CLOUDY     5   1  85 CALM      29.91F
HALLOCK        CLOUDY    16  14  93 S8        29.91F WCI   5
THF RVR FALLS    N/A    N/A N/A N/A MISG        N/A
6HR MIN TEMP:   8; 6HR MAX TEMP:  11;

BAUDETTE       FAIR       2  -3  80 W6        29.89F WCI  -9
6HR MIN TEMP:   2; 6HR MAX TEMP:   7;

WASKISH        FAIR       5   1  85 W6        29.91S WCI  -6
CROOKSTON      CLOUDY    18  16  93 S7        29.96F WCI   8
GREENBUSH NDAW   N/A     12  10  92 S6          N/A  WCI   3
$$
  *****  WEATHER ACROSS CENTRAL AND WEST MINNESOTA  *****

CITY           SKY/WX    TMP DP  RH WIND       PRES   REMARKS
FOSSTON        MOCLDY     9   7  92 S3        29.94F
BEMIDJI        FAIR       5   1  85 W6        29.91F WCI  -6
PARK RAPIDS    FAIR       7   0  73 NW9       29.92S WCI  -7
6HR MIN TEMP:   6; 6HR MAX TEMP:  12;

ELBOW LAKE     FAIR      14  12  92 NW7       29.99S WCI   3
WADENA         FAIR      10   5  79 W7        29.94S WCI   0
DETROIT LAKES  MOCLDY    14  12  92 W3        29.95F
MOORHEAD       CLOUDY    18  14  86 SW3       29.99F
FERGUS FALLS   FAIR      12  10  92 NW5       30.04F WCI   4
MORRIS MN      FAIR      16  12  86 W8        29.99F WCI   5
STAPLES        FAIR      10   3  72 NW10      29.93S WCI  -3
$$
  *****  WEATHER ELSEWHERE ACROSS MINNESOTA  *****

CITY           SKY/WX    TMP DP  RH WIND       PRES   REMARKS
DULUTH         FAIR       6   2  83 NW12      29.79R WCI  -9
6HR MIN TEMP:   6; 6HR MAX TEMP:  13; 6HR PCP: TRACE;

INTRNTL FALLS  FAIR       2  -3  80 NW8       29.87S WCI -12
6HR MIN TEMP:   2; 6HR MAX TEMP:   5;

ELY            CLOUDY     7   1  78 NW8G17    29.78S WCI  -6
CLOQUET        FAIR       7   1  78 NW10      29.82S WCI  -8
WHEATON        FAIR      14  10  85 W3        30.03F
BRAINERD       FAIR       9   1  70 NW9       29.92S WCI  -4
6HR MIN TEMP:   9; 6HR MAX TEMP:  15;

HIBBING        FAIR       4   1  88 NW16      29.83S WCI -15
6HR MIN TEMP:   4; 6HR MAX TEMP:  10;

ALEXANDRIA     FAIR      12   5  73 NW9       29.96S WCI   0
6HR MIN TEMP:  12; 6HR MAX TEMP:  15;

SAINT CLOUD    FAIR      12   4  70 NW10      29.94R WCI  -1
6HR MIN TEMP:  12; 6HR MAX TEMP:  18;

MINNEAPOLIS    FAIR      15   4  61 NW16G28   29.92R WCI  -1
6HR MIN TEMP:  15; 6HR MAX TEMP:  20;

$$

  *****  WEATHER ACROSS SOUTH DAKOTA  *****

CITY           SKY/WX    TMP DP  RH WIND       PRES   REMARKS
SIOUX FALLS    FAIR      13  11  92 W9        30.04S WCI   1
6HR MIN TEMP:  13; 6HR MAX TEMP:  19;

BROOKINGS      FAIR      12   9  87 CALM      30.00F
WATERTOWN      FAIR      12   9  87 SW3       29.98F
6HR MIN TEMP:  10; 6HR MAX TEMP:  17;

HURON          CLOUDY    18  15  88 SW3       30.05F
6HR MIN TEMP:  13; 6HR MAX TEMP:  18;

SISSETON         N/A     14  11  87 CALM      29.99F
ABERDEEN       MOCLDY    13   9  84 S5        30.01F WCI   5
6HR MIN TEMP:  12; 6HR MAX TEMP:  16;

MITCHELL       CLOUDY    20  15  81 SW6       30.07S WCI  12
PIERRE         CLOUDY    22  14  71 S6        30.00F WCI  14
6HR MIN TEMP:  19; 6HR MAX TEMP:  23;

MOBRIDGE       CLOUDY    24  16  71 S7        29.94F WCI  16
RAPID CITY     CLOUDY    17  10  74 W7        29.91F WCI   8
6HR MIN TEMP:   9; 6HR MAX TEMP:  17;

$$

  *****  SOME WEATHER IN NEARBY STATES *****

CITY           SKY/WX    TMP DP  RH WIND       PRES   REMARKS
GLASGOW MT     CLOUDY    20  17  88 CALM      29.94F
6HR MIN TEMP:  16; 6HR MAX TEMP:  23;

GREAT FALLS MT FAIR      15  11  83 SW9       29.91F WCI   3
6HR MIN TEMP:  15; 6HR MAX TEMP:  23;

CHEYENNE WY    FAIR       9  -1  64 S6        29.88F WCI  -1
6HR MIN TEMP:   5; 6HR MAX TEMP:  14;

SCOTTSBLUFF NE CLOUDY    -2  -7  79 NW9       29.97S WCI -18
6HR MIN TEMP:  -4; 6HR MAX TEMP:  12;

OMAHA NE       FAIR      16  10  77 NW6       30.11R WCI   7
6HR MIN TEMP:  16; 6HR MAX TEMP:  24;

DES MOINES IA  MOCLDY    18  10  71 NW13G24   30.01R WCI   5
6HR MIN TEMP:  18; 6HR MAX TEMP:  22;

DAVENPORT IA   FAIR      20  13  74 NW18      29.86R WCI   5
6HR MIN TEMP:  20; 6HR MAX TEMP:  26; 6HR PCP: TRACE;

CHICAGO IL     CLOUDY    25  17  72 NW15      29.70R WCI  13
6HR MIN TEMP:  25; 6HR MAX TEMP:  33; 6HR PCP: TRACE;

EAU CLAIRE WI  FAIR      12   3  67 NW12      29.82R WCI  -2
6HR MIN TEMP:  12; 6HR MAX TEMP:  19; 6HR PCP: TRACE;

LA CROSSE WI   CLOUDY    18   9  68 NW18G33   29.84R WCI   2
6HR MIN TEMP:  18; 6HR MAX TEMP:  22; 6HR PCP: TRACE;

$$

  *****  SOME NATIONAL WEATHER *****

CITY           SKY/WX    TMP DP  RH WIND       PRES   REMARKS
LA GUARDIA NY  FOG       51  50  96 S6        29.78F VSB 1/4
6HR MIN TEMP:  51; 6HR MAX TEMP:  54;

RALEIGH NC     FAIR      60  57  89 SW8       29.76F
6HR MIN TEMP:  59; 6HR MAX TEMP:  63;

ATLANTA GA     FAIR      62  59  90 SW12      29.76S
6HR MIN TEMP:  61; 6HR MAX TEMP:  66;

NEW ORLEANS LA FAIR      61  38  42 N9        29.97R
6HR MIN TEMP:  61; 6HR MAX TEMP:  68;

OKLAHOMA CITY  FAIR      24  18  77 N9        30.20R WCI  14
6HR MIN TEMP:  24; 6HR MAX TEMP:  34;

ALBUQUERQUE NM FAIR      24   2  38 CALM      30.08R
6HR MIN TEMP:  24; 6HR MAX TEMP:  34;

SALT LAKE CITY MOCLDY    22  13  68 SE9       30.10F WCI  12
6HR MIN TEMP:  21; 6HR MAX TEMP:  24;

LOS ANGELES CA FAIR      45  38  76 NE3       30.12F
6HR MIN TEMP:  45; 6HR MAX TEMP:  53;

BOISE ID       FAIR      23  14  68 SE7       30.13F WCI  15
6HR MIN TEMP:  23; 6HR M



USA.gov is the U.S. government's official web portal to all federal, state and local government web resources and services.